Fargo, ND

5:14 AM CDT on April 19, 2018 (GMT -0500)
Hector International

Weather History for KFAR - August, 2013

Change the Weather History Date:

Tuesday, August 6, 2013

  Actual Average Record
Temperature  
Mean Temperature 66 °F 71 °F  
Max Temperature 79 °F 83 °F 100 °F (1941)
Min Temperature 53 °F 59 °F 42 °F (1989)
Degree Days  
Heating Degree Days 0 1  
Month to date heating degree days 1 2  
Since 1 June heating degree days 80 91  
Since 1 July heating degree days 18 18  
Cooling Degree Days 1 7  
Month to date cooling degree days 6 42  
Year to date cooling degree days 414 382  
Since 1 June cooling degree days 385 351  
Growing Degree Days 17 (Base 50)    
Moisture  
Dew Point 58 °F    
Average Humidity 77    
Maximum Humidity 93    
Minimum Humidity 60    
Precipitation  
Precipitation 0.24 in 0.07 in 0.97 in (2011)
Month to date precipitation 0.24 0.42  
Year to date precipitation 21.77 13.92  
Snow  
Snow 0.00 in 0.00 in 0.00 in ()
Month to date snowfall 0.0 0.0  
Since 1 June snowfall 0.0 0.0  
Since 1 July snowfall 0.0 0.0  
Snow Depth 0.00 in    
Sea Level Pressure  
Sea Level Pressure 29.77 in    
Wind  
Wind Speed 8 mph (ENE)    
Max Wind Speed 20 mph    
Max Gust Speed 23 mph    
Visibility 9 miles    
Events Rain    
T = Trace of Precipitation, MM = Missing Value Source: NWS Daily Summary

Daily Weather History Graph

Daily Weather History Graph

Search for Another Location

Airport or City:

Astronomy

Aug. 06, 2013 Rise Set
Actual Time 6:13 AM CDT 8:51 PM CDT
Civil Twilight 5:38 AM CDT 9:26 PM CDT
Nautical Twilight 4:55 AM CDT 10:09 PM CDT
Astronomical Twilight 4:04 AM CDT 11:00 PM CDT
Moon 6:09 AM CDT (8/6) 8:21 PM CDT (8/6)
Length of Visible Light 15h 47m
Length of Day
14h 38m
Waning Crescent, 0% of the Moon is Illuminated
Aug 6
Waning Crescent
Aug 6
New
Aug 14
First Quarter
Aug 20
Full
Aug 28
Last Quarter

Hourly Weather History & Observations

Time (CDT) Temp. Dew Point Humidity Pressure Visibility Wind Dir Wind Speed Gust Speed Precip Events Conditions
12:53 AM 59.0 °F 55.0 °F 87% 29.81 in 10.0 mi South 5.8 mph - N/A   Clear
1:53 AM 60.1 °F 54.0 °F 80% 29.81 in 10.0 mi South 8.1 mph - N/A   Clear
2:53 AM 59.0 °F 54.0 °F 83% 29.78 in 10.0 mi South 8.1 mph - N/A   Clear
3:53 AM 59.0 °F 54.0 °F 83% 29.77 in 10.0 mi South 8.1 mph - N/A   Clear
4:53 AM 57.9 °F 53.1 °F 84% 29.75 in 10.0 mi South 6.9 mph - N/A   Clear
5:53 AM 59.0 °F 54.0 °F 83% 29.74 in 10.0 mi South 11.5 mph - N/A   Clear
6:53 AM 59.0 °F 55.0 °F 87% 29.76 in 10.0 mi South 6.9 mph - 0.00 in   Overcast
7:53 AM 60.1 °F 57.9 °F 93% 29.76 in 2.5 mi SE 4.6 mph - 0.07 in Rain Rain
8:05 AM 60.8 °F 57.2 °F 88% 29.76 in 6.0 mi SSE 3.5 mph - 0.02 in Rain Light Rain
8:53 AM 61.0 °F 57.9 °F 90% 29.74 in 10.0 mi SE 6.9 mph - 0.02 in   Overcast
9:53 AM 64.0 °F 60.1 °F 87% 29.73 in 10.0 mi SE 5.8 mph - 0.00 in Rain Light Rain
10:53 AM 71.1 °F 62.1 °F 73% 29.73 in 10.0 mi ESE 3.5 mph - 0.00 in   Partly Cloudy
11:53 AM 75.0 °F 61.0 °F 62% 29.72 in 10.0 mi Variable 3.5 mph - N/A   Clear
12:53 PM 75.9 °F 61.0 °F 60% 29.72 in 10.0 mi Calm Calm - N/A   Overcast
1:53 PM 73.9 °F 63.0 °F 68% 29.73 in 10.0 mi North 5.8 mph - N/A   Mostly Cloudy
2:53 PM 75.0 °F 64.0 °F 69% 29.73 in 10.0 mi NE 8.1 mph - N/A   Mostly Cloudy
3:53 PM 73.0 °F 61.0 °F 66% 29.73 in 10.0 mi NNE 10.4 mph - N/A   Overcast
4:53 PM 71.1 °F 62.1 °F 73% 29.75 in 10.0 mi North 16.1 mph - N/A   Mostly Cloudy
5:13 PM 69.8 °F 60.8 °F 73% 29.76 in 10.0 mi North 18.4 mph 21.9 mph N/A   Overcast
5:53 PM 64.9 °F 61.0 °F 87% 29.80 in 3.0 mi North 3.5 mph - 0.06 in Rain Rain
6:03 PM 64.4 °F 60.8 °F 88% 29.75 in 2.5 mi East 10.4 mph - 0.05 in Rain Heavy Rain
6:14 PM 64.4 °F 60.8 °F 88% 29.75 in 4.0 mi NNE 15.0 mph - 0.09 in Rain Light Rain
6:53 PM 64.9 °F 61.0 °F 87% 29.79 in 10.0 mi North 9.2 mph - 0.09 in   Partly Cloudy
7:53 PM 64.9 °F 59.0 °F 81% 29.81 in 10.0 mi North 17.3 mph - N/A   Scattered Clouds
8:53 PM 62.1 °F 57.9 °F 86% 29.85 in 10.0 mi North 15.0 mph 21.9 mph N/A   Mostly Cloudy
9:53 PM 61.0 °F 57.0 °F 87% 29.88 in 10.0 mi NNW 9.2 mph - N/A   Overcast
10:53 PM 57.9 °F 54.0 °F 87% 29.88 in 10.0 mi NNW 8.1 mph - N/A   Partly Cloudy
11:53 PM 54.0 °F 51.1 °F 90% 29.90 in 10.0 mi NNW 3.5 mph - N/A   Clear